Weather History for KAUM - October, 2012

Change the Weather History Date:

Tuesday, October 16, 2012

  Actual Average Record
Temperature  
Mean Temperature 57 °F -  
Max Temperature 66 °F 58 °F 75 °F (1996)
Min Temperature 46 °F 37 °F 26 °F (2002)
Degree Days  
Heating Degree Days 8    
Growing Degree Days 7 (Base 50)    
Moisture  
Dew Point 46 °F    
Average Humidity 71    
Maximum Humidity 100    
Minimum Humidity 52    
Precipitation  
Precipitation 0.00 in - - ()
Sea Level Pressure  
Sea Level Pressure 29.55 in    
Wind  
Wind Speed 8 mph (SSE)    
Max Wind Speed 16 mph    
Max Gust Speed 20 mph    
Visibility 10 miles    
Events      
Averages and records for this station are not official NWS values.
T = Trace of Precipitation, MM = Missing Value Source: NWS Daily Summary

Daily Weather History Graph

Daily Weather History Graph

Search for Another Location

Airport or City:

Trip Planner

Search our weather history database for the weather conditions in past years. The results will help you decide how hot, cold, wet, or windy it might be!

Date:

Astronomy

Oct. 16, 2012 Rise Set
Actual Time 7:27 AM CDT 6:25 PM CDT
Civil Twilight 6:58 AM CDT 6:54 PM CDT
Nautical Twilight 6:25 AM CDT 7:27 PM CDT
Astronomical Twilight 5:52 AM CDT 8:01 PM CDT
Moon 8:55 AM CDT (10/16) 7:06 PM CDT (10/16)
Length of Visible Light 11h 55m
Length of Day
10h 57m
New Moon, 2% of the Moon is Illuminated
Oct 16
New Moon
Oct 21
First Quarter
Oct 29
Full
Nov 6
Last Quarter
Nov 13
New

Hourly Weather History & Observations

Time (CDT) Temp. Dew Point Humidity Pressure Visibility Wind Dir Wind Speed Gust Speed Precip Events Conditions
12:14 AM 51.8 °F 42.8 °F 71% 29.80 in 10.0 mi SSE 6.9 mph - N/A   Clear
12:35 AM 51.8 °F 41.0 °F 67% 29.80 in 10.0 mi South 6.9 mph - N/A   Clear
12:55 AM 51.8 °F 41.0 °F 67% 29.79 in 10.0 mi South 8.1 mph - N/A   Clear
1:14 AM 50.0 °F 41.0 °F 71% 29.78 in 10.0 mi SSE 9.2 mph - N/A   Clear
1:35 AM 50.0 °F 42.8 °F 76% 29.77 in 10.0 mi SSE 8.1 mph - N/A   Clear
1:55 AM 50.0 °F 41.0 °F 71% 29.77 in 10.0 mi South 9.2 mph - N/A   Clear
2:15 AM 51.8 °F 41.0 °F 67% 29.75 in 10.0 mi South 8.1 mph - N/A   Clear
2:35 AM 51.8 °F 42.8 °F 71% 29.74 in 10.0 mi South 9.2 mph - N/A   Clear
2:55 AM 51.8 °F 41.0 °F 67% 29.73 in 10.0 mi South 10.4 mph - N/A   Clear
3:15 AM 51.8 °F 42.8 °F 71% 29.72 in 10.0 mi South 11.5 mph - N/A   Clear
3:35 AM 51.8 °F 42.8 °F 71% 29.71 in 10.0 mi South 11.5 mph - N/A   Clear
3:55 AM 51.8 °F 42.8 °F 71% 29.70 in 10.0 mi South 11.5 mph - N/A   Clear
4:15 AM 50.0 °F 42.8 °F 76% 29.70 in 10.0 mi South 10.4 mph - N/A   Clear
4:35 AM 50.0 °F 42.8 °F 76% 29.69 in 10.0 mi South 10.4 mph - N/A   Clear
4:55 AM 50.0 °F 42.8 °F 76% 29.68 in 10.0 mi South 9.2 mph - N/A   Clear
5:15 AM 50.0 °F 42.8 °F 76% 29.68 in 10.0 mi South 9.2 mph - N/A   Clear
5:35 AM 48.2 °F 42.8 °F 82% 29.67 in 10.0 mi SSE 8.1 mph - N/A   Clear
5:55 AM 48.2 °F 42.8 °F 82% 29.66 in 10.0 mi SSE 6.9 mph - N/A   Clear
6:15 AM 48.2 °F 42.8 °F 82% 29.64 in 10.0 mi SSE 9.2 mph - N/A   Scattered Clouds
6:35 AM 48.2 °F 42.8 °F 82% 29.63 in 10.0 mi SSE 8.1 mph - N/A   Scattered Clouds
7:15 AM 48.2 °F 42.8 °F 82% 29.62 in 10.0 mi SSE 6.9 mph - N/A   Scattered Clouds
7:35 AM 48.2 °F 42.8 °F 82% 29.62 in 10.0 mi Calm Calm - N/A   Mostly Cloudy
7:54 AM 48.2 °F 42.8 °F 82% 29.60 in 10.0 mi SSE 10.4 mph - N/A   Scattered Clouds
8:15 AM 50.0 °F 42.8 °F 76% 29.60 in 10.0 mi SSE 8.1 mph - N/A   Clear
8:35 AM 51.8 °F 42.8 °F 71% 29.60 in 10.0 mi SSE 10.4 mph 16.1 mph N/A   Clear
8:55 AM 51.8 °F 42.8 °F 71% 29.59 in 10.0 mi SSE 10.4 mph 16.1 mph N/A   Clear
9:15 AM 51.8 °F 42.8 °F 71% 29.64 in 10.0 mi WNW 8.1 mph - N/A   Scattered Clouds
9:35 AM 53.6 °F 42.8 °F 67% 29.62 in 10.0 mi Calm Calm - N/A   Scattered Clouds
9:55 AM 53.6 °F 42.8 °F 67% 29.60 in 10.0 mi ESE 5.8 mph - N/A   Scattered Clouds
10:15 AM 53.6 °F 44.6 °F 72% 29.59 in 10.0 mi SE 10.4 mph - N/A   Scattered Clouds
10:30 AM 53.6 °F 44.6 °F 72% 29.60 in 10.0 mi SSE 3.5 mph - N/A   Scattered Clouds
10:55 AM 57.2 °F 44.6 °F 63% 29.58 in 10.0 mi SE 6.9 mph - N/A   Clear
11:15 AM 59.0 °F 46.4 °F 63% 29.58 in 10.0 mi SSE 5.8 mph - N/A   Clear
11:35 AM 57.2 °F 46.4 °F 67% 29.55 in 10.0 mi SE 10.4 mph - N/A   Clear
11:55 AM 57.2 °F 46.4 °F 67% 29.53 in 10.0 mi SE 12.7 mph - N/A   Clear
12:15 PM 60.8 °F 46.4 °F 59% 29.54 in 10.0 mi SSE 10.4 mph - N/A   Clear
12:35 PM 60.8 °F 46.4 °F 59% 29.49 in 10.0 mi SE 16.1 mph - N/A   Clear
12:55 PM 60.8 °F 46.4 °F 59% 29.48 in 10.0 mi SE 11.5 mph - N/A   Clear
1:15 PM 60.8 °F 46.4 °F 59% 29.49 in 10.0 mi SSE 8.1 mph 16.1 mph N/A   Clear
1:35 PM 62.6 °F 48.2 °F 59% 29.49 in 10.0 mi South 9.2 mph - N/A   Clear
1:55 PM 64.4 °F 48.2 °F 56% 29.48 in 10.0 mi SSE 6.9 mph - N/A   Clear
2:14 PM 62.6 °F 48.2 °F 59% 29.47 in 10.0 mi SE 8.1 mph - N/A   Clear
2:35 PM 64.4 °F 48.2 °F 56% 29.46 in 10.0 mi SE 10.4 mph - N/A   Clear
2:55 PM 66.2 °F 48.2 °F 52% 29.45 in 10.0 mi SSE 11.5 mph 17.3 mph N/A   Clear
3:15 PM 64.4 °F 48.2 °F 56% 29.44 in 10.0 mi SSE 9.2 mph 17.3 mph N/A   Clear
3:35 PM 66.2 °F 48.2 °F 52% 29.45 in 10.0 mi South 11.5 mph 17.3 mph N/A   Clear
3:54 PM 66.2 °F 48.2 °F 52% 29.44 in 10.0 mi South 12.7 mph 17.3 mph N/A   Clear
4:15 PM 66.2 °F 48.2 °F 52% 29.43 in 10.0 mi South 13.8 mph 19.6 mph N/A   Clear
4:35 PM 66.2 °F 50.0 °F 56% 29.43 in 10.0 mi South 6.9 mph 16.1 mph N/A   Clear
4:54 PM 66.2 °F 50.0 °F 56% 29.44 in 10.0 mi SSW 12.7 mph - N/A   Scattered Clouds
5:15 PM 66.2 °F 50.0 °F 56% 29.43 in 10.0 mi SSW 10.4 mph - N/A   Scattered Clouds
5:35 PM 66.2 °F 50.0 °F 56% 29.42 in 10.0 mi South 6.9 mph - N/A   Clear
5:54 PM 64.4 °F 50.0 °F 59% 29.42 in 10.0 mi SSW 5.8 mph - N/A   Clear
6:15 PM 62.6 °F 50.0 °F 63% 29.41 in 10.0 mi Calm Calm - N/A   Clear
6:35 PM 62.6 °F 50.0 °F 63% 29.41 in 10.0 mi Calm Calm - N/A   Clear
6:54 PM 60.8 °F 50.0 °F 68% 29.41 in 10.0 mi SE 3.5 mph - N/A   Clear
7:15 PM 57.2 °F 50.0 °F 77% 29.41 in 10.0 mi ESE 4.6 mph - N/A   Clear
7:35 PM 57.2 °F 50.0 °F 77% 29.41 in 10.0 mi Calm Calm - N/A   Clear
7:54 PM 55.4 °F 50.0 °F 82% 29.41 in 10.0 mi ESE 4.6 mph - N/A   Clear
8:15 PM 53.6 °F 48.2 °F 82% 29.41 in 10.0 mi Calm Calm - N/A   Clear
8:35 PM 51.8 °F 48.2 °F 88% 29.41 in 10.0 mi Calm Calm - N/A   Clear
8:55 PM 51.8 °F 48.2 °F 88% 29.41 in 10.0 mi SE 3.5 mph - N/A   Clear
9:15 PM 51.8 °F 48.2 °F 88% 29.41 in 10.0 mi Calm Calm - N/A   Clear
9:34 PM 50.0 °F 46.4 °F 87% 29.41 in 10.0 mi Calm Calm - N/A   Clear
9:55 PM 50.0 °F 48.2 °F 94% 29.41 in 10.0 mi Calm Calm - N/A   Clear
10:35 PM 51.8 °F 48.2 °F 88% 29.41 in 10.0 mi Calm Calm - N/A   Clear
10:55 PM 51.8 °F 46.4 °F 82% 29.41 in 10.0 mi Calm Calm - N/A   Clear
11:15 PM 48.2 °F 46.4 °F 93% 29.40 in 7.0 mi Calm Calm - N/A   Clear
11:35 PM 48.2 °F 46.4 °F 93% 29.39 in 7.0 mi ESE 3.5 mph - N/A   Clear
11:54 PM 46.4 °F 46.4 °F 100% 29.39 in 7.0 mi Calm Calm - N/A   Clear